EW7200 Weather Reports


Display with metric or nautical units.
time (UTC)temp
F
wind
direction
speed
MPH
gust
MPH
rain 1hr
in
rain 24hr
in
rain mn
in
humidity
%
barometer
mb
20210308003328 41 360 0.0 0.0 0.00 0.00 0.00 60 1029.0
20210308003317 41 314 0.0 0.0 0.00 0.00 0.00 60 1027.5
20210308002812 42 314 0.0 0.0 0.00 0.00 0.00 58 1027.4
20210308001605 42 360 0.0 0.0 0.00 0.00 0.00 57 1029.1
20210308001243 43 314 0.0 0.0 0.00 0.00 0.00 56 1027.5
20210308000642 43 360 0.0 0.0 0.00 0.00 0.00 55 1028.9
20210307235837 45 314 0.0 0.0 0.00 0.00 0.00 52 1027.1
20210307234636 45 360 0.0 0.0 0.00 0.00 0.00 50 1028.6
20210307234100 46 314 0.0 0.0 0.00 0.00 0.00 49 1027.1
20210307233325 48 314 0.0 0.0 0.00 0.00 0.00 47 1026.9
20210307232627 51 314 0.0 0.0 0.00 0.00 0.00 41 1026.8
20210307231605 52 360 0.0 0.0 0.00 0.00 0.00 39 1028.1
20210307231111 53 314 0.0 0.0 0.00 0.00 0.00 35 1026.6
20210307230221 56 360 0.0 1.0 0.00 0.00 0.00 30 1027.9
20210307230153 56 314 0.0 0.0 0.00 0.00 0.00 30 1026.5
20210307225704 57 314 0.0 0.0 0.00 0.00 0.00 26 1026.5
20210307224604 57 360 0.0 0.0 0.00 0.00 0.00 26 1027.8
20210307224054 57 314 0.0 0.0 0.00 0.00 0.00 25 1026.3
20210307223308 57 32 0.0 1.0 0.00 0.00 0.00 25 1027.7
20210307222750 57 314 0.0 0.0 0.00 0.00 0.00 25 1026.2
20210307221548 57 350 0.0 1.0 0.00 0.00 0.00 26 1027.6
20210307221056 58 314 0.0 1.0 0.00 0.00 0.00 25 1026.0
20210307220118 57 350 0.0 1.0 0.00 0.00 0.00 26 1027.6
20210307220056 58 260 0.0 1.0 0.00 0.00 0.00 26 1026.0
20210307215245 58 315 0.0 0.0 0.00 0.00 0.00 25 1026.0
20210307214550 57 312 0.0 0.0 0.00 0.00 0.00 25 1027.7
20210307214058 57 315 0.0 4.0 0.00 0.00 0.00 24 1025.9
20210307213445 56 277 0.0 8.0 0.00 0.00 0.00 25 1027.7
20210307212727 57 63 0.0 2.0 0.00 0.00 0.00 25 1026.0
20210307211625 57 294 0.0 4.0 0.00 0.00 0.00 24 1027.6
20210307211037 57 117 0.0 4.0 0.00 0.00 0.00 24 1026.0
20210307210133 57 225 0.0 1.0 0.00 0.00 0.00 25 1027.6
20210307210108 58 43 0.0 1.0 0.00 0.00 0.00 24 1025.9
20210307205159 57 284 0.0 2.0 0.00 0.00 0.00 24 1025.9
20210307204635 57 136 0.0 3.0 0.00 0.00 0.00 24 1027.5
20210307204028 57 15 0.0 2.0 0.00 0.00 0.00 24 1025.9
20210307203040 56 106 0.0 8.0 0.00 0.00 0.00 24 1027.5
20210307202212 56 271 0.0 6.0 0.00 0.00 0.00 24 1026.3
20210307201528 56 298 0.0 7.0 0.00 0.00 0.00 24 1028.0
20210307201039 57 274 0.0 6.0 0.00 0.00 0.00 24 1026.4
20210307200208 56 360 0.0 9.0 0.00 0.00 0.00 24 1027.7
20210307200203 56 0 0.0 6.0 0.00 0.00 0.00 24 1026.3
20210307195531 56 0 0.0 8.0 0.00 0.00 0.00 24 1026.2
20210307194521 55 360 2.0 11.0 0.00 0.00 0.00 23 1027.7
20210307194020 56 35 1.0 5.0 0.00 0.00 0.00 24 1026.1
20210307193025 55 315 0.0 14.0 0.00 0.00 0.00 25 1026.2
20210307193023 55 336 0.0 8.0 0.00 0.00 0.00 25 1027.5
20210307192120 55 28 0.0 7.0 0.00 0.00 0.00 25 1026.2
20210307191514 55 29 0.0 9.0 0.00 0.00 0.00 25 1027.7
20210307191021 55 42 0.0 3.0 0.00 0.00 0.00 25 1026.3
20210307190158 54 336 0.0 6.0 0.00 0.00 0.00 25 1027.7
20210307190032 55 208 0.0 8.0 0.00 0.00 0.00 25 1026.4
20210307185115 55 51 0.0 4.0 0.00 0.00 0.00 27 1026.4
20210307184706 54 286 0.0 9.0 0.00 0.00 0.00 27 1027.9
20210307184019 54 298 0.0 8.0 0.00 0.00 0.00 25 1026.4
20210307183138 54 313 0.0 3.0 0.00 0.00 0.00 27 1028.3
20210307183037 55 139 0.0 1.0 0.00 0.00 0.00 26 1026.7
20210307182344 54 288 0.0 4.0 0.00 0.00 0.00 27 1026.7
20210307181615 53 13 0.0 4.0 0.00 0.00 0.00 25 1028.3
20210307181022 55 288 0.0 3.0 0.00 0.00 0.00 25 1027.0
20210307180131 56 355 0.0 3.0 0.00 0.00 0.00 26 1028.6
20210307180011 56 16 0.0 0.0 0.00 0.00 0.00 27 1027.2
20210307175207 55 16 0.0 1.0 0.00 0.00 0.00 26 1027.1
20210307174637 55 304 0.0 4.0 0.00 0.00 0.00 27 1028.6
20210307174025 54 76 0.0 4.0 0.00 0.00 0.00 26 1027.4
20210307173349 54 303 0.0 7.0 0.00 0.00 0.00 27 1029.0
20210307173256 54 9 0.0 7.0 0.00 0.00 0.00 26 1027.5
20210307172330 54 271 0.0 6.0 0.00 0.00 0.00 26 1027.5
20210307171609 53 292 0.0 5.0 0.00 0.00 0.00 26 1028.9
20210307170955 53 348 0.0 3.0 0.00 0.00 0.00 27 1027.6
20210307170239 53 360 0.0 4.0 0.00 0.00 0.00 26 1029.0
20210307170141 53 0 0.0 4.0 0.00 0.00 0.00 26 1027.7
20210307165256 53 0 0.0 3.0 0.00 0.00 0.00 25 1027.5
20210307164620 53 360 0.0 1.0 0.00 0.00 0.00 26 1029.1
20210307163944 53 0 0.0 1.0 0.00 0.00 0.00 26 1027.7
20210307163138 52 360 0.0 5.0 0.00 0.00 0.00 29 1029.1
20210307162956 53 0 0.0 4.0 0.00 0.00 0.00 28 1027.6
20210307162052 52 0 0.0 2.0 0.00 0.00 0.00 29 1027.7
20210307161657 51 360 0.0 8.0 0.00 0.00 0.00 28 1029.1
20210307160943 52 0 0.0 4.0 0.00 0.00 0.00 28 1027.8
20210307160209 51 360 0.0 9.0 0.00 0.00 0.00 27 1029.3
20210307160101 51 0 1.0 4.0 0.00 0.00 0.00 27 1027.7
20210307155045 51 0 0.0 6.0 0.00 0.00 0.00 30 1027.8
20210307154534 50 360 0.0 10.0 0.00 0.00 0.00 27 1029.3
20210307153943 51 0 0.0 2.0 0.00 0.00 0.00 29 1027.7
20210307153043 51 360 0.0 5.0 0.00 0.00 0.00 30 1029.0
20210307152941 51 0 0.0 5.0 0.00 0.00 0.00 29 1027.5
20210307152120 50 0 0.0 4.0 0.00 0.00 0.00 31 1027.4
20210307151624 49 360 0.0 6.0 0.00 0.00 0.00 32 1028.7
20210307150941 49 0 0.0 4.0 0.00 0.00 0.00 31 1027.3
20210307150042 49 360 0.0 4.0 0.00 0.00 0.00 32 1028.5
20210307145938 49 0 0.0 5.0 0.00 0.00 0.00 33 1027.2
20210307145039 49 0 1.0 4.0 0.00 0.00 0.00 33 1027.1
20210307144521 48 360 0.0 8.0 0.00 0.00 0.00 37 1028.8
20210307143938 49 0 0.0 0.0 0.00 0.00 0.00 38 1027.1
20210307143035 46 360 0.0 5.0 0.00 0.00 0.00 41 1028.7
20210307143024 46 0 0.0 1.0 0.00 0.00 0.00 41 1027.1
20210307142048 45 0 0.0 1.0 0.00 0.00 0.00 45 1027.1
20210307140927 44 0 0.0 8.0 0.00 0.00 0.00 46 1026.9
20210307140419 43 30 0.0 6.0 0.00 0.00 0.00 50 1028.5
20210307140037 43 0 0.0 2.0 0.00 0.00 0.00 51 1026.8
20210307135045 41 0 0.0 0.0 0.00 0.00 0.00 58 1026.7
20210307134559 40 360 0.0 3.0 0.00 0.00 0.00 63 1028.2
20210307133929 38 0 0.0 3.0 0.00 0.00 0.00 73 1026.6
20210307133201 35 39 0.0 4.0 0.00 0.00 0.00 83 1028.0
20210307133127 35 0 0.0 0.0 0.00 0.00 0.00 86 1026.4
20210307132213 33 0 0.0 0.0 0.00 0.00 0.00 93 1026.4
20210307131601 32 360 0.0 0.0 0.00 0.00 0.00 93 1027.9
20210307130932 31 0 0.0 0.0 0.00 0.00 0.00 93 1026.2
20210307130253 30 360 0.0 0.0 0.00 0.00 0.00 93 1027.5
20210307130203 30 0 0.0 0.0 0.00 0.00 0.00 93 1025.9
20210307125220 29 0 0.0 0.0 0.00 0.00 0.00 93 1025.9
20210307124642 28 360 0.0 0.0 0.00 0.00 0.00 92 1027.2
20210307123939 28 0 0.0 0.0 0.00 0.00 0.00 92 1025.5
20210307123159 27 259 0.0 0.0 0.00 0.00 0.00 92 1026.8
20210307123043 27 0 0.0 0.0 0.00 0.00 0.00 92 1025.3
20210307122158 27 0 0.0 0.0 0.00 0.00 0.00 92 1025.2
20210307121635 27 259 0.0 0.0 0.00 0.00 0.00 92 1026.6
20210307120921 27 0 0.0 0.0 0.00 0.00 0.00 92 1025.1
20210307120156 27 259 0.0 0.0 0.00 0.00 0.00 92 1026.4
20210307120039 27 0 0.0 0.0 0.00 0.00 0.00 92 1025.0
20210307115107 27 0 0.0 0.0 0.00 0.00 0.00 92 1024.7
20210307114551 27 259 0.0 0.0 0.00 0.00 0.00 92 1026.1
20210307113917 27 0 0.0 0.0 0.00 0.00 0.00 92 1024.5
20210307113209 27 259 0.0 0.0 0.00 0.00 0.00 92 1025.8
20210307113124 27 0 0.0 0.0 0.00 0.00 0.00 92 1024.5
20210307112317 27 0 0.0 0.0 0.00 0.00 0.00 92 1024.5
20210307111630 27 259 0.0 0.0 0.00 0.00 0.00 92 1025.9
20210307110921 28 0 0.0 0.0 0.00 0.00 0.00 92 1024.3
20210307110402 27 259 0.0 0.0 0.00 0.00 0.00 92 1025.6
20210307110320 28 0 0.0 0.0 0.00 0.00 0.00 92 1024.2
20210307105055 28 0 0.0 0.0 0.00 0.00 0.00 92 1024.2
20210307104707 28 259 0.0 0.0 0.00 0.00 0.00 92 1025.5
20210307103908 28 0 0.0 0.0 0.00 0.00 0.00 92 1024.1
20210307103102 28 259 0.0 0.0 0.00 0.00 0.00 92 1025.3
20210307103028 28 0 0.0 0.0 0.00 0.00 0.00 92 1023.9
20210307102115 28 0 0.0 0.0 0.00 0.00 0.00 92 1024.0
20210307101528 27 258 0.0 0.0 0.00 0.00 0.00 92 1025.3
20210307100904 28 0 0.0 0.0 0.00 0.00 0.00 92 1023.9
20210307100253 27 258 0.0 0.0 0.00 0.00 0.00 92 1025.1
20210307100212 28 0 0.0 0.0 0.00 0.00 0.00 92 1023.7
20210307095136 28 0 0.0 0.0 0.00 0.00 0.00 92 1023.7
20210307094617 27 258 0.0 0.0 0.00 0.00 0.00 92 1024.9
20210307093903 28 0 0.0 0.0 0.00 0.00 0.00 92 1023.3
20210307093046 27 258 0.0 0.0 0.00 0.00 0.00 92 1024.6
20210307092909 28 0 0.0 0.0 0.00 0.00 0.00 92 1023.2
20210307091937 28 0 0.0 0.0 0.00 0.00 0.00 92 1023.0
20210307091548 28 258 0.0 0.0 0.00 0.00 0.00 92 1024.3
20210307090845 28 0 0.0 0.0 0.00 0.00 0.00 92 1022.8
20210307090127 28 258 0.0 0.0 0.00 0.00 0.00 92 1023.9
20210307090032 28 0 0.0 0.0 0.00 0.00 0.00 92 1022.7
20210307085048 28 0 0.0 0.0 0.00 0.00 0.00 92 1022.6
20210307084523 28 258 0.0 0.0 0.00 0.00 0.00 92 1024.0
20210307083840 28 0 0.0 0.0 0.00 0.00 0.00 92 1022.5
20210307083046 28 258 0.0 0.0 0.00 0.00 0.00 92 1023.8
20210307083019 28 0 0.0 0.0 0.00 0.00 0.00 92 1022.3
20210307081943 28 0 0.0 0.0 0.00 0.00 0.00 92 1022.4
20210307081553 28 258 0.0 0.0 0.00 0.00 0.00 92 1023.8
20210307080835 28 0 0.0 0.0 0.00 0.00 0.00 92 1022.6
20210307080059 28 261 0.0 0.0 0.00 0.00 0.00 92 1023.9
20210307075846 28 0 0.0 0.0 0.00 0.00 0.00 91 1022.5
20210307074917 29 0 0.0 0.0 0.00 0.00 0.00 91 1022.7
20210307074530 28 261 0.0 0.0 0.00 0.00 0.00 91 1024.0
20210307073818 29 0 0.0 0.0 0.00 0.00 0.00 91 1022.8
20210307073025 28 261 0.0 0.0 0.00 0.00 0.00 92 1024.1
20210307072902 29 0 0.0 0.0 0.00 0.00 0.00 92 1022.8
20210307071853 29 0 0.0 0.0 0.00 0.00 0.00 92 1022.7
20210307071515 28 261 0.0 0.0 0.00 0.00 0.00 91 1024.1
20210307070812 29 0 0.0 0.0 0.00 0.00 0.00 91 1022.9
20210307070322 29 261 0.0 0.0 0.00 0.00 0.00 91 1024.1
20210307070023 29 261 0.0 0.0 0.00 0.00 0.00 91 1024.2
20210307065843 29 0 0.0 0.0 0.00 0.00 0.00 91 1022.9
20210307065103 29 0 0.0 0.0 0.00 0.00 0.00 91 1022.9
20210307065058 29 261 0.0 0.0 0.00 0.00 0.00 91 1024.1
20210307063816 29 0 0.0 0.0 0.00 0.00 0.00 91 1022.7
20210307063218 29 261 0.0 0.0 0.00 0.00 0.00 91 1023.8
20210307062828 29 0 0.0 0.0 0.00 0.00 0.00 91 1022.6
20210307061853 29 0 0.0 0.0 0.00 0.00 0.00 91 1022.5
20210307061633 29 261 0.0 0.0 0.00 0.00 0.00 91 1023.6
20210307060810 29 0 0.0 0.0 0.00 0.00 0.00 91 1022.3
20210307060137 29 261 0.0 0.0 0.00 0.00 0.00 91 1023.5
20210307055938 30 0 0.0 0.0 0.00 0.00 0.00 91 1022.3
20210307054808 30 0 0.0 0.0 0.00 0.00 0.00 91 1022.2
20210307054649 29 261 0.0 0.0 0.00 0.00 0.00 91 1023.4
20210307053807 30 0 0.0 0.0 0.00 0.00 0.00 90 1022.3
20210307053212 29 261 0.0 0.0 0.00 0.00 0.00 90 1023.5
20210307052856 30 0 0.0 0.0 0.00 0.00 0.00 90 1022.3
20210307051840 30 0 0.0 0.0 0.00 0.00 0.00 90 1022.3
20210307051629 30 261 0.0 0.0 0.00 0.00 0.00 90 1023.4
20210307050807 30 0 0.0 0.0 0.00 0.00 0.00 90 1022.2
20210307050138 30 261 0.0 0.0 0.00 0.00 0.00 90 1023.3
20210307045809 31 0 0.0 0.0 0.00 0.00 0.00 90 1022.2
20210307044820 31 0 0.0 0.0 0.00 0.00 0.00 90 1022.5
20210307044614 30 261 0.0 0.0 0.00 0.00 0.00 90 1023.6
20210307043807 31 0 0.0 0.0 0.00 0.00 0.00 90 1022.5
20210307043137 30 261 0.0 0.0 0.00 0.00 0.00 90 1023.5
20210307042918 31 0 0.0 0.0 0.00 0.00 0.00 89 1022.4
20210307041831 31 0 0.0 0.0 0.00 0.00 0.00 89 1022.3
20210307041613 31 261 0.0 0.0 0.00 0.00 0.00 89 1023.3
20210307040806 31 0 0.0 0.0 0.00 0.00 0.00 89 1022.1
20210307040141 31 261 0.0 0.0 0.00 0.00 0.00 89 1023.3
20210307035953 32 0 0.0 0.0 0.00 0.00 0.00 89 1022.1
20210307034825 32 0 0.0 0.0 0.00 0.00 0.00 89 1022.1
20210307034612 32 261 0.0 0.0 0.00 0.00 0.00 89 1023.2
20210307033806 32 0 0.0 0.0 0.00 0.00 0.00 88 1022.1
20210307033305 32 261 0.0 0.0 0.00 0.00 0.00 88 1023.2
20210307033144 33 0 0.0 0.0 0.00 0.00 0.00 88 1022.2
20210307031801 33 0 0.0 0.0 0.00 0.00 0.00 88 1022.1
20210307031603 32 261 0.0 0.0 0.00 0.00 0.00 88 1023.3
20210307030755 33 0 0.0 0.0 0.00 0.00 0.00 87 1022.2
20210307030137 33 261 0.0 0.0 0.00 0.00 0.00 87 1023.3
20210307025949 33 0 0.0 0.0 0.00 0.00 0.00 87 1022.2
20210307024821 34 0 0.0 0.0 0.00 0.00 0.00 87 1022.1
20210307024632 33 261 0.0 0.0 0.00 0.00 0.00 87 1023.2
20210307023747 34 0 0.0 0.0 0.00 0.00 0.00 87 1022.1
20210307023216 34 261 0.0 0.0 0.00 0.00 0.00 86 1023.1
20210307023125 34 0 0.0 0.0 0.00 0.00 0.00 86 1021.9
20210307021800 35 0 0.0 0.0 0.00 0.00 0.00 86 1021.8
20210307021540 34 261 0.0 0.0 0.00 0.00 0.00 85 1022.9
20210307020744 35 0 0.0 0.0 0.00 0.00 0.00 85 1021.8
20210307020156 35 261 0.0 0.0 0.00 0.00 0.00 85 1022.7
20210307020110 35 0 0.0 0.0 0.00 0.00 0.00 84 1021.6
20210307014752 35 0 0.0 0.0 0.00 0.00 0.00 84 1021.7
20210307014554 35 261 0.0 0.0 0.00 0.00 0.00 83 1022.7
20210307013753 36 0 0.0 0.0 0.00 0.00 0.00 83 1021.6
20210307013103 36 261 0.0 0.0 0.00 0.00 0.00 83 1022.6
20210307012807 36 0 0.0 0.0 0.00 0.00 0.00 82 1021.6
20210307011746 37 0 0.0 0.0 0.00 0.00 0.00 81 1021.5
20210307011540 36 261 0.0 0.0 0.00 0.00 0.00 81 1022.4
20210307010736 37 0 0.0 0.0 0.00 0.00 0.00 81 1021.4
20210307010143 37 261 0.0 0.0 0.00 0.00 0.00 80 1022.4
20210307005956 37 0 0.0 0.0 0.00 0.00 0.00 80 1021.3
20210307004753 38 0 0.0 0.0 0.00 0.00 0.00 79 1021.2
20210307004528 38 261 0.0 0.0 0.00 0.00 0.00 79 1022.2
20210307003733 38 0 0.0 0.0 0.00 0.00 0.00 78 1021.0